This is the latest recevied weather packets stored in our database for station/object DO1SC. If no packets are shown the sender has not sent any weather packets the latest 10 day(s).
| Time | Temp. | Humidity | Pressure | Rain* | Wind** | Luminosity | Snow |
|---|---|---|---|---|---|---|---|
| 1776980129 | 7.22° C | 65% | 1023.1 hPa | - | - | 0 W/m² | - |
| 1776979520 | 7.78° C | 63% | 1023.1 hPa | - | - | 0 W/m² | - |
| 1776978935 | 8.33° C | 61% | 1023.1 hPa | - | - | 0 W/m² | - |
| 1776978323 | 8.33° C | 60% | 1023.1 hPa | - | - | 0 W/m² | - |
| 1776977735 | 8.33° C | 60% | 1023.1 hPa | - | - | 0 W/m² | - |
| 1776977130 | 8.33° C | 60% | 1023.1 hPa | - | - | 0 W/m² | - |
| 1776976519 | 8.33° C | 58% | 1023.2 hPa | - | - | 0 W/m² | - |
| 1776975930 | 8.33° C | 55% | 1023.1 hPa | - | - | 0 W/m² | - |
| 1776975325 | 8.89° C | 54% | 1023.3 hPa | - | - | 0 W/m² | - |
| 1776974733 | 8.89° C | 51% | 1023.3 hPa | - | - | 0 W/m² | - |
| 1776974125 | 9.44° C | 49% | 1023.4 hPa | - | - | 0 W/m² | - |
| 1776973517 | 10° C | 47% | 1023.3 hPa | - | - | 0 W/m² | - |
| 1776972931 | 10.56° C | 46% | 1023.3 hPa | - | - | 0 W/m² | - |
| 1776972320 | 10.56° C | 45% | 1023.1 hPa | - | - | 0 W/m² | - |
| 1776971731 | 10.56° C | 43% | 1023 hPa | - | - | 0 W/m² | - |
| 1776971123 | 11.11° C | 42% | 1023.1 hPa | - | - | 0 W/m² | - |
| 1776970535 | 11.11° C | 41% | 1022.9 hPa | - | - | 0 W/m² | - |
| 1776969926 | 11.67° C | 40% | 1022.9 hPa | - | - | 0 W/m² | - |
| 1776969320 | 11.67° C | 38% | 1022.8 hPa | - | - | 1 W/m² | - |
| 1776968729 | 12.22° C | 37% | 1022.8 hPa | - | - | 2 W/m² | - |
| 1776968121 | 12.78° C | 35% | 1022.8 hPa | - | - | 4 W/m² | - |
| 1776967533 | 12.78° C | 34% | 1022.8 hPa | - | - | 8 W/m² | - |
| 1776966925 | 13.33° C | 33% | 1022.9 hPa | - | - | 12 W/m² | - |
| 1776966337 | 13.33° C | 33% | 1022.8 hPa | - | - | 15 W/m² | - |
| 1776965728 | 13.89° C | 33% | 1022.7 hPa | - | - | 20 W/m² | - |
* Rain since midnight (hover to see other rain measurements)
** Current wind speed in m/s (hover to see current wind gust speed)